FDX4218 TIST-TJSJ

Flight info

Callsign FDX4218
Flight time 0h 20m
Altitude 12000
Route STT RTE2 SJU
Aircraft B752/M-VGDW/C

Departure

Time 2026-04-30 18:39
Airport Cyril E. King Airport (TIST)

Arrival

Time 2026-04-30 19:00
Airport Luis Munoz Marin International Airport (TJSJ)
Time Latitude Longitude Altitude Speed Heading
2026-04-30 18:37 18.33553 -64.97506 34 ft 0 kts 319°
2026-04-30 18:38 18.33606 -64.97554 34 ft 21 kts 286°
2026-04-30 18:38 18.33599 -64.97769 34 ft 39 kts 266°
2026-04-30 18:38 18.33587 -64.98035 34 ft 35 kts 268°
2026-04-30 18:38 18.33574 -64.98297 34 ft 36 kts 266°
2026-04-30 18:39 18.33651 -64.98435 34 ft 23 kts 10°
2026-04-30 18:39 18.33689 -64.98327 34 ft 38 kts 86°
2026-04-30 18:39 18.33716 -64.97697 38 ft 132 kts 89°
2026-04-30 18:39 18.33743 -64.96605 714 ft 168 kts 90°
2026-04-30 18:40 18.33743 -64.96487 787 ft 173 kts 90°
2026-04-30 18:40 18.33760 -64.96100 1013 ft 191 kts 90°
2026-04-30 18:40 18.34221 -64.94610 1653 ft 222 kts 71°
2026-04-30 18:40 18.35263 -64.93365 2404 ft 238 kts 49°
2026-04-30 18:41 18.36816 -64.92538 3190 ft 268 kts 23°
2026-04-30 18:41 18.38633 -64.92441 3966 ft 258 kts 352°
2026-04-30 18:41 18.40267 -64.93264 4690 ft 265 kts 324°
2026-04-30 18:41 18.41386 -64.94765 5491 ft 266 kts 300°
2026-04-30 18:42 18.42141 -64.96594 6277 ft 263 kts 290°
2026-04-30 18:42 18.43253 -65.00258 7786 ft 260 kts 287°
2026-04-30 18:42 18.43765 -65.02091 8538 ft 261 kts 286°
2026-04-30 18:45 18.48977 -65.20497 12004 ft 274 kts 286°
2026-04-30 18:45 18.49531 -65.22446 12004 ft 274 kts 286°
2026-04-30 18:45 18.50070 -65.24343 12005 ft 274 kts 286°
2026-04-30 18:46 18.50616 -65.26264 12006 ft 273 kts 286°
2026-04-30 18:46 18.51194 -65.28313 12021 ft 318 kts 285°
2026-04-30 18:46 18.51464 -65.30818 12021 ft 366 kts 268°
2026-04-30 18:46 18.51106 -65.33462 12015 ft 362 kts 258°
2026-04-30 18:47 18.50438 -65.36057 12010 ft 373 kts 253°
2026-04-30 18:47 18.49667 -65.38652 12006 ft 377 kts 252°
2026-04-30 18:47 18.48906 -65.41323 12005 ft 379 kts 254°
2026-04-30 18:47 18.48304 -65.44007 12006 ft 381 kts 259°
2026-04-30 18:48 18.47892 -65.46759 12008 ft 382 kts 262°
2026-04-30 18:48 18.47615 -65.49549 12008 ft 383 kts 265°
2026-04-30 18:48 18.47426 -65.52361 12009 ft 383 kts 266°
2026-04-30 18:48 18.47291 -65.55159 12004 ft 364 kts 267°
2026-04-30 18:49 18.47175 -65.57724 11923 ft 340 kts 266°
2026-04-30 18:49 18.46876 -65.60157 11427 ft 332 kts 261°
2026-04-30 18:49 18.46441 -65.62519 10926 ft 325 kts 258°
2026-04-30 18:49 18.45962 -65.64795 10432 ft 321 kts 257°
2026-04-30 18:50 18.45456 -65.67084 9928 ft 317 kts 256°
2026-04-30 18:50 18.44952 -65.69329 9428 ft 314 kts 256°
2026-04-30 18:50 18.44788 -65.70056 9265 ft 313 kts 256°
2026-04-30 18:50 18.44668 -65.70589 9145 ft 313 kts 256°
2026-04-30 18:51 18.44180 -65.72764 8655 ft 311 kts 256°
2026-04-30 18:51 18.43690 -65.74946 8162 ft 310 kts 256°
2026-04-30 18:51 18.43194 -65.77162 7659 ft 309 kts 256°
2026-04-30 18:51 18.42705 -65.79346 7162 ft 308 kts 256°
2026-04-30 18:52 18.42217 -65.81532 6664 ft 307 kts 256°
2026-04-30 18:52 18.41728 -65.83727 6160 ft 306 kts 256°
2026-04-30 18:52 18.41243 -65.85912 5660 ft 306 kts 256°
2026-04-30 18:52 18.40747 -65.88148 5147 ft 306 kts 256°
2026-04-30 18:53 18.40265 -65.90329 4647 ft 305 kts 256°
2026-04-30 18:53 18.39788 -65.92498 4146 ft 305 kts 256°
2026-04-30 18:53 18.39312 -65.94675 3649 ft 305 kts 256°
2026-04-30 18:53 18.38842 -65.96836 3164 ft 305 kts 256°
2026-04-30 18:54 18.38473 -65.99006 3033 ft 292 kts 260°
2026-04-30 18:54 18.38273 -66.01052 3006 ft 278 kts 263°
2026-04-30 18:54 18.38141 -66.03056 2996 ft 266 kts 265°
2026-04-30 18:54 18.38040 -66.04951 2994 ft 254 kts 266°
2026-04-30 18:55 18.37951 -66.06777 2991 ft 244 kts 266°
2026-04-30 18:55 18.37922 -66.10352 2383 ft 251 kts 277°
2026-04-30 18:55 18.38663 -66.11991 1995 ft 242 kts 298°
2026-04-30 18:56 18.41148 -66.13508 1906 ft 192 kts 337°
2026-04-30 18:56 18.42513 -66.13431 1987 ft 207 kts
2026-04-30 18:56 18.43840 -66.12843 1954 ft 201 kts 21°
2026-04-30 18:57 18.45209 -66.10465 1965 ft 198 kts 68°
2026-04-30 18:57 18.45120 -66.09067 1930 ft 185 kts 86°
2026-04-30 18:57 18.44524 -66.07861 1216 ft 174 kts 106°
2026-04-30 18:58 18.43725 -66.05979 864 ft 136 kts 106°
2026-04-30 18:58 18.43539 -66.05021 703 ft 131 kts 102°
2026-04-30 18:58 18.43421 -66.04013 513 ft 140 kts 97°
2026-04-30 18:59 18.43350 -66.01872 172 ft 147 kts 89°
2026-04-30 19:00 18.43357 -65.99822 20 ft 32 kts 92°
2026-04-30 19:00 18.43376 -65.99596 20 ft 23 kts 44°
2026-04-30 19:00 18.43624 -65.99567 20 ft 24 kts
2026-04-30 19:01 18.43820 -65.99618 20 ft 0 kts 304°